This is the latest recevied weather packets stored in our database for station/object S57PNX-8. If no packets are shown the sender has not sent any weather packets the latest 10 day(s).
| Time | Temp. | Humidity | Pressure | Rain* | Wind** | Luminosity | Snow |
|---|---|---|---|---|---|---|---|
| 1788685493 | 20° C | 57% | 1029.8 hPa | - | - | - | - |
| 1788684595 | 19.44° C | 59% | 1029.7 hPa | - | - | - | - |
| 1788684564 | 19.44° C | 60% | 1029.7 hPa | - | - | - | - |
| 1788683665 | 18.89° C | 62% | 1029.7 hPa | - | - | - | - |
| 1788682766 | 18.89° C | 63% | 1029.7 hPa | - | - | - | - |
| 1788681866 | 18.33° C | 64% | 1029.6 hPa | - | - | - | - |
| 1788680967 | 18.33° C | 64% | 1029.4 hPa | - | - | - | - |
| 1788680068 | 17.78° C | 65% | 1029.2 hPa | - | - | - | - |
| 1788679169 | 17.78° C | 66% | 1029.2 hPa | - | - | - | - |
| 1788678270 | 17.78° C | 66% | 1029 hPa | - | - | - | - |
| 1788677371 | 17.78° C | 67% | 1028.9 hPa | - | - | - | - |
| 1788676472 | 17.22° C | 67% | 1028.8 hPa | - | - | - | - |
| 1788675597 | 17.22° C | 67% | 1028.8 hPa | - | - | - | - |
| 1788674675 | 17.22° C | 67% | 1028.8 hPa | - | - | - | - |
| 1788673776 | 17.22° C | 67% | 1028.5 hPa | - | - | - | - |
| 1788672876 | 17.22° C | 66% | 1028.4 hPa | - | - | - | - |
| 1788671977 | 17.22° C | 67% | 1028.3 hPa | - | - | - | - |
| 1788671078 | 17.22° C | 67% | 1028.3 hPa | - | - | - | - |
| 1788670179 | 17.78° C | 67% | 1028.2 hPa | - | - | - | - |
| 1788669279 | 17.78° C | 67% | 1028.1 hPa | - | - | - | - |
| 1788668414 | 17.78° C | 67% | 1028 hPa | - | - | - | - |
| 1788668380 | 17.78° C | 67% | 1028 hPa | - | - | - | - |
| 1788667481 | 17.78° C | 67% | 1027.9 hPa | - | - | - | - |
| 1788666582 | 17.78° C | 67% | 1027.7 hPa | - | - | - | - |
| 1788665729 | 17.78° C | 67% | 1027.7 hPa | - | - | - | - |
* Rain since midnight (hover to see other rain measurements)
** Current wind speed in m/s (hover to see current wind gust speed)